Time,TemperatureF,DewpointF,PressureIn,WindDirection,WindDirectionDegrees,WindSpeedMPH,WindSpeedGustMPH,Humidity,HourlyPrecipIn,Conditions,Clouds,dailyrainin,SoftwareType,DateUTC
2013-04-02 00:02:00,34.0,19.0,-100.00,NNE,30,11.0,20.0,55,-99.99,,,-99.99,,2013-04-02 05:02:00,
2013-04-02 00:12:00,33.0,19.0,-100.00,NNE,30,10.0,19.0,56,-99.99,,,-99.99,,2013-04-02 05:12:00,
2013-04-02 00:22:00,33.0,20.0,-100.00,NNE,30,10.0,15.0,57,-99.99,,,-99.99,,2013-04-02 05:22:00,
2013-04-02 00:32:00,33.0,20.0,-100.00,NNE,30,10.0,15.0,57,-99.99,,,-99.99,,2013-04-02 05:32:00,
2013-04-02 00:42:00,33.0,20.0,-100.00,NNE,25,11.0,18.0,58,-99.99,,,-99.99,,2013-04-02 05:42:00,
2013-04-02 00:52:00,33.0,20.0,-100.00,NE,35,13.0,17.0,58,-99.99,,,-99.99,,2013-04-02 05:52:00,
2013-04-02 01:02:00,33.0,20.0,-100.00,NE,35,13.0,17.0,58,-99.99,,,-99.99,,2013-04-02 06:02:00,
2013-04-02 01:12:00,33.0,20.0,-100.00,NE,40,11.0,14.0,59,-99.99,,,-99.99,,2013-04-02 06:12:00,
2013-04-02 01:22:00,32.0,20.0,-100.00,NNE,25,10.0,15.0,60,-99.99,,,-99.99,,2013-04-02 06:22:00,
2013-04-02 01:32:00,32.0,20.0,-100.00,NNE,25,10.0,15.0,60,-99.99,,,-99.99,,2013-04-02 06:32:00,
2013-04-02 01:42:00,32.0,20.0,-100.00,NNE,30,9.0,16.0,61,-99.99,,,-99.99,,2013-04-02 06:42:00,
2013-04-02 01:52:00,32.0,20.0,-100.00,NE,40,11.0,15.0,62,-99.99,,,-99.99,,2013-04-02 06:52:00,
2013-04-02 02:02:00,32.0,20.0,-100.00,NE,40,11.0,15.0,62,-99.99,,,-99.99,,2013-04-02 07:02:00,
2013-04-02 02:12:00,32.0,20.0,-100.00,NNE,30,13.0,17.0,62,-99.99,,,-99.99,,2013-04-02 07:12:00,
2013-04-02 02:22:00,31.0,20.0,-100.00,NE,35,10.0,15.0,62,-99.99,,,-99.99,,2013-04-02 07:22:00,
2013-04-02 02:32:00,31.0,20.0,-100.00,NE,35,10.0,15.0,62,-99.99,,,-99.99,,2013-04-02 07:32:00,
2013-04-02 02:42:00,31.0,20.0,-100.00,NE,35,10.0,15.0,62,-99.99,,,-99.99,,2013-04-02 07:42:00,
2013-04-02 02:53:00,31.0,21.0,-100.00,NE,35,10.0,14.0,64,-99.99,,,-99.99,,2013-04-02 07:53:00,
2013-04-02 03:02:00,31.0,21.0,-100.00,NE,35,10.0,14.0,64,-99.99,,,-99.99,,2013-04-02 08:02:00,
2013-04-02 03:13:00,31.0,20.0,-100.00,NE,50,11.0,14.0,64,-99.99,,,-99.99,,2013-04-02 08:13:00,
2013-04-02 03:22:00,31.0,21.0,-100.00,ENE,65,6.0,15.0,66,-99.99,,,-99.99,,2013-04-02 08:22:00,
2013-04-02 03:32:00,31.0,21.0,-100.00,ENE,65,6.0,15.0,66,-99.99,,,-99.99,,2013-04-02 08:32:00,
2013-04-02 03:42:00,31.0,21.0,-100.00,NE,45,6.0,14.0,67,-99.99,,,-99.99,,2013-04-02 08:42:00,
2013-04-02 03:52:00,30.0,21.0,-100.00,NE,50,6.0,13.0,67,-99.99,,,-99.99,,2013-04-02 08:52:00,
2013-04-02 04:02:00,30.0,21.0,-100.00,NE,50,6.0,13.0,67,-99.99,,,-99.99,,2013-04-02 09:02:00,
2013-04-02 04:12:00,30.0,21.0,-100.00,NNE,25,9.0,13.0,68,-99.99,,,-99.99,,2013-04-02 09:12:00,
2013-04-02 04:22:00,30.0,21.0,-100.00,NE,50,9.0,13.0,68,-99.99,,,-99.99,,2013-04-02 09:22:00,
2013-04-02 04:32:00,30.0,21.0,-100.00,NE,50,9.0,13.0,68,-99.99,,,-99.99,,2013-04-02 09:32:00,
2013-04-02 04:43:00,30.0,21.0,-100.00,ENE,60,7.0,11.0,68,-99.99,,,-99.99,,2013-04-02 09:43:00,
2013-04-02 04:53:00,30.0,21.0,-100.00,NE,55,8.0,11.0,69,-99.99,,,-99.99,,2013-04-02 09:53:00,
2013-04-02 05:03:00,30.0,21.0,-100.00,NE,55,8.0,11.0,69,-99.99,,,-99.99,,2013-04-02 10:03:00,
2013-04-02 05:13:00,30.0,21.0,-100.00,ENE,60,7.0,13.0,70,-99.99,,,-99.99,,2013-04-02 10:13:00,
2013-04-02 05:23:00,30.0,21.0,-100.00,ENE,70,5.0,11.0,71,-99.99,,,-99.99,,2013-04-02 10:23:00,
2013-04-02 05:33:00,30.0,21.0,-100.00,ENE,70,5.0,11.0,71,-99.99,,,-99.99,,2013-04-02 10:33:00,
2013-04-02 05:42:00,29.0,21.0,-100.00,ENE,70,4.0,9.0,71,-99.99,,,-99.99,,2013-04-02 10:42:00,
2013-04-02 05:52:00,29.0,21.0,-100.00,East,80,5.0,11.0,72,-99.99,,,-99.99,,2013-04-02 10:52:00,
2013-04-02 06:02:00,29.0,21.0,-100.00,East,80,5.0,11.0,72,-99.99,,,-99.99,,2013-04-02 11:02:00,
2013-04-02 06:12:00,29.0,22.0,-100.00,ENE,75,4.0,9.0,73,-99.99,,,-99.99,,2013-04-02 11:12:00,
2013-04-02 06:22:00,29.0,22.0,-100.00,NNW,340,2.0,8.0,74,-99.99,,,-99.99,,2013-04-02 11:22:00,
2013-04-02 06:33:00,29.0,22.0,-100.00,NNW,340,2.0,8.0,74,-99.99,,,-99.99,,2013-04-02 11:33:00,
2013-04-02 06:43:00,29.0,22.0,-100.00,North,0,2.0,9.0,75,-99.99,,,-99.99,,2013-04-02 11:43:00,
2013-04-02 06:53:00,28.0,21.0,-100.00,ENE,65,2.0,6.0,77,-99.99,,,-99.99,,2013-04-02 11:53:00,
2013-04-02 07:02:00,28.0,21.0,-100.00,ENE,65,2.0,6.0,77,-99.99,,,-99.99,,2013-04-02 12:02:00,
2013-04-02 07:12:00,28.0,22.0,-100.00,East,80,3.0,6.0,79,-99.99,,,-99.99,,2013-04-02 12:12:00,
2013-04-02 07:22:00,28.0,22.0,-100.00,NE,50,4.0,8.0,79,-99.99,,,-99.99,,2013-04-02 12:22:00,
2013-04-02 07:32:00,28.0,22.0,-100.00,NE,50,4.0,8.0,79,-99.99,,,-99.99,,2013-04-02 12:32:00,
2013-04-02 07:42:00,28.0,22.0,-100.00,NE,50,4.0,8.0,79,-99.99,,,-99.99,,2013-04-02 12:42:00,
2013-04-02 07:53:00,28.0,23.0,-100.00,ESE,110,2.0,6.0,80,-99.99,,,-99.99,,2013-04-02 12:53:00,
2013-04-02 08:02:00,28.0,23.0,-100.00,ESE,110,2.0,6.0,80,-99.99,,,-99.99,,2013-04-02 13:02:00,
2013-04-02 08:12:00,28.0,23.0,-100.00,ESE,110,2.0,5.0,81,-99.99,,,-99.99,,2013-04-02 13:12:00,
2013-04-02 08:22:00,30.0,24.0,-100.00,ESE,115,2.0,4.0,79,-99.99,,,-99.99,,2013-04-02 13:22:00,
2013-04-02 08:33:00,30.0,24.0,-100.00,ESE,115,2.0,4.0,79,-99.99,,,-99.99,,2013-04-02 13:33:00,
2013-04-02 08:42:00,31.0,24.0,-100.00,SE,125,1.0,6.0,76,-99.99,,,-99.99,,2013-04-02 13:42:00,
2013-04-02 08:52:00,32.0,25.0,-100.00,ENE,75,2.0,4.0,73,-99.99,,,-99.99,,2013-04-02 13:52:00,
2013-04-02 09:02:00,32.0,25.0,-100.00,ENE,75,2.0,4.0,73,-99.99,,,-99.99,,2013-04-02 14:02:00,
2013-04-02 09:12:00,34.0,25.0,-100.00,ESE,120,1.0,4.0,70,-99.99,,,-99.99,,2013-04-02 14:12:00,
2013-04-02 09:23:00,35.0,25.0,-100.00,East,80,3.0,5.0,67,-99.99,,,-99.99,,2013-04-02 14:23:00,
2013-04-02 09:32:00,35.0,25.0,-100.00,East,80,3.0,5.0,67,-99.99,,,-99.99,,2013-04-02 14:32:00,
2013-04-02 09:42:00,36.0,25.0,-100.00,NE,55,6.0,9.0,64,-99.99,,,-99.99,,2013-04-02 14:42:00,
2013-04-02 09:52:00,37.0,25.0,-100.00,ENE,65,4.0,6.0,61,-99.99,,,-99.99,,2013-04-02 14:52:00,
2013-04-02 10:02:00,37.0,25.0,-100.00,ENE,65,4.0,6.0,61,-99.99,,,-99.99,,2013-04-02 15:02:00,
2013-04-02 10:11:00,38.0,23.0,-100.00,NE,55,1.0,4.0,56,-99.99,,,-99.99,,2013-04-02 15:11:00,
2013-04-02 10:22:00,39.0,23.0,-100.00,North,0,1.0,4.0,53,-99.99,,,-99.99,,2013-04-02 15:22:00,
2013-04-02 10:33:00,39.0,23.0,-100.00,North,0,1.0,4.0,53,-99.99,,,-99.99,,2013-04-02 15:33:00,
2013-04-02 10:43:00,39.0,20.0,-100.00,East,90,1.0,9.0,45,-99.99,,,-99.99,,2013-04-02 15:43:00,
2013-04-02 10:58:00,40.0,21.0,-100.00,West,270,4.0,5.0,46,-99.99,,,-99.99,,2013-04-02 15:58:00,
2013-04-02 11:04:00,40.0,21.0,-100.00,West,270,4.0,5.0,46,-99.99,,,-99.99,,2013-04-02 16:04:00,
2013-04-02 11:13:00,38.0,20.0,-100.00,WNW,295,3.0,9.0,48,-99.99,,,-99.99,,2013-04-02 16:13:00,
2013-04-02 11:24:00,39.0,20.0,-100.00,West,270,3.0,7.0,46,-99.99,,,-99.99,,2013-04-02 16:24:00,
2013-04-02 11:36:00,39.0,20.0,-100.00,West,270,3.0,7.0,46,-99.99,,,-99.99,,2013-04-02 16:36:00,
2013-04-02 11:43:00,39.0,20.0,-100.00,West,270,3.0,7.0,46,-99.99,,,-99.99,,2013-04-02 16:43:00,
2013-04-02 11:53:00,40.0,19.0,-100.00,West,275,3.0,4.0,42,-99.99,,,-99.99,,2013-04-02 16:53:00,
2013-04-02 12:05:00,40.0,19.0,-100.00,West,275,3.0,4.0,42,-99.99,,,-99.99,,2013-04-02 17:05:00,
2013-04-02 12:13:00,42.0,19.0,-100.00,West,280,2.0,5.0,39,-99.99,,,-99.99,,2013-04-02 17:13:00,
2013-04-02 12:24:00,43.0,19.0,-100.00,ESE,105,0.0,5.0,38,-99.99,,,-99.99,,2013-04-02 17:24:00,
2013-04-02 12:34:00,43.0,19.0,-100.00,ESE,105,0.0,5.0,38,-99.99,,,-99.99,,2013-04-02 17:34:00,
2013-04-02 12:43:00,43.0,18.0,-100.00,NW,310,2.0,4.0,36,-99.99,,,-99.99,,2013-04-02 17:43:00,
2013-04-02 12:55:00,45.0,19.0,-100.00,NE,50,3.0,8.0,34,-99.99,,,-99.99,,2013-04-02 17:55:00,
2013-04-02 13:03:00,45.0,19.0,-100.00,NE,50,3.0,8.0,34,-99.99,,,-99.99,,2013-04-02 18:03:00,
2013-04-02 13:12:00,44.0,18.0,-100.00,NNW,335,5.0,11.0,35,-99.99,,,-99.99,,2013-04-02 18:12:00,
2013-04-02 13:23:00,44.0,18.0,-100.00,WNW,300,9.0,16.0,35,-99.99,,,-99.99,,2013-04-02 18:23:00,
2013-04-02 13:34:00,44.0,18.0,-100.00,WNW,300,9.0,16.0,35,-99.99,,,-99.99,,2013-04-02 18:34:00,
2013-04-02 13:43:00,43.0,15.0,-100.00,NNW,340,9.0,15.0,32,-99.99,,,-99.99,,2013-04-02 18:43:00,
2013-04-02 13:57:00,44.0,16.0,-100.00,North,0,10.0,14.0,31,-99.99,,,-99.99,,2013-04-02 18:57:00,
2013-04-02 14:03:00,44.0,16.0,-100.00,North,0,10.0,14.0,31,-99.99,,,-99.99,,2013-04-02 19:03:00,
2013-04-02 14:13:00,44.0,16.0,-100.00,NW,325,8.0,21.0,32,-99.99,,,-99.99,,2013-04-02 19:13:00,
2013-04-02 14:23:00,44.0,15.0,-100.00,NNE,20,11.0,16.0,30,-99.99,,,-99.99,,2013-04-02 19:23:00,
2013-04-02 14:34:00,44.0,15.0,-100.00,NNE,20,11.0,16.0,30,-99.99,,,-99.99,,2013-04-02 19:34:00,
2013-04-02 14:45:00,45.0,17.0,-100.00,North,350,10.0,17.0,31,-99.99,,,-99.99,,2013-04-02 19:45:00,
2013-04-02 14:57:00,46.0,16.0,-100.00,North,10,4.0,14.0,30,-99.99,,,-99.99,,2013-04-02 19:57:00,
2013-04-02 15:03:00,46.0,16.0,-100.00,North,10,4.0,14.0,30,-99.99,,,-99.99,,2013-04-02 20:03:00,
2013-04-02 15:13:00,46.0,15.0,-100.00,NW,325,5.0,14.0,29,-99.99,,,-99.99,,2013-04-02 20:13:00,
2013-04-02 15:22:00,46.0,16.0,-100.00,NNW,340,6.0,21.0,29,-99.99,,,-99.99,,2013-04-02 20:22:00,
2013-04-02 15:33:00,46.0,16.0,-100.00,NNW,340,6.0,21.0,29,-99.99,,,-99.99,,2013-04-02 20:33:00,
2013-04-02 15:44:00,46.0,16.0,-100.00,NW,320,10.0,19.0,29,-99.99,,,-99.99,,2013-04-02 20:44:00,
2013-04-02 15:54:00,47.0,16.0,-100.00,North,0,14.0,19.0,29,-99.99,,,-99.99,,2013-04-02 20:54:00,
2013-04-02 16:04:00,47.0,16.0,-100.00,North,0,14.0,19.0,29,-99.99,,,-99.99,,2013-04-02 21:04:00,
2013-04-02 16:13:00,46.0,16.0,-100.00,NW,325,11.0,20.0,29,-99.99,,,-99.99,,2013-04-02 21:13:00,
2013-04-02 16:23:00,46.0,16.0,-100.00,NW,315,22.0,26.0,29,-99.99,,,-99.99,,2013-04-02 21:23:00,
2013-04-02 16:34:00,46.0,16.0,-100.00,NW,315,22.0,26.0,29,-99.99,,,-99.99,,2013-04-02 21:34:00,
2013-04-02 16:44:00,46.0,16.0,-100.00,NW,315,22.0,26.0,29,-99.99,,,-99.99,,2013-04-02 21:44:00,
2013-04-02 16:56:00,47.0,16.0,-100.00,NNW,330,12.0,24.0,29,-99.99,,,-99.99,,2013-04-02 21:56:00,
2013-04-02 17:04:00,47.0,16.0,-100.00,NNW,330,12.0,24.0,29,-99.99,,,-99.99,,2013-04-02 22:04:00,
2013-04-02 17:14:00,47.0,16.0,-100.00,NW,325,18.0,21.0,29,-99.99,,,-99.99,,2013-04-02 22:14:00,
2013-04-02 17:24:00,47.0,15.0,-100.00,NE,45,16.0,26.0,27,-99.99,,,-99.99,,2013-04-02 22:24:00,
2013-04-02 17:33:00,47.0,15.0,-100.00,NE,45,16.0,26.0,27,-99.99,,,-99.99,,2013-04-02 22:33:00,
2013-04-02 17:43:00,47.0,15.0,-100.00,NE,45,5.0,21.0,27,-99.99,,,-99.99,,2013-04-02 22:43:00,
2013-04-02 17:54:00,48.0,17.0,-100.00,NNE,25,13.0,21.0,29,-99.99,,,-99.99,,2013-04-02 22:54:00,
2013-04-02 18:03:00,48.0,17.0,-100.00,NNE,25,13.0,21.0,29,-99.99,,,-99.99,,2013-04-02 23:03:00,
2013-04-02 18:13:00,47.0,15.0,-100.00,NNE,20,13.0,24.0,27,-99.99,,,-99.99,,2013-04-02 23:13:00,
2013-04-02 18:23:00,47.0,15.0,-100.00,NE,35,19.0,24.0,28,-99.99,,,-99.99,,2013-04-02 23:23:00,
2013-04-02 18:34:00,47.0,15.0,-100.00,NE,35,19.0,24.0,28,-99.99,,,-99.99,,2013-04-02 23:34:00,
2013-04-02 18:43:00,47.0,15.0,-100.00,NNE,25,14.0,20.0,28,-99.99,,,-99.99,,2013-04-02 23:43:00,
2013-04-02 18:54:00,46.0,17.0,-100.00,NNE,25,16.0,24.0,30,-99.99,,,-99.99,,2013-04-02 23:54:00,
2013-04-02 19:04:00,46.0,17.0,-100.00,NNE,25,16.0,24.0,30,-99.99,,,-99.99,,2013-04-03 00:04:00,
2013-04-02 19:13:00,46.0,16.0,-100.00,NNE,30,18.0,24.0,30,-99.99,,,-99.99,,2013-04-03 00:13:00,
2013-04-02 19:24:00,45.0,17.0,-100.00,NNE,30,15.0,20.0,31,-99.99,,,-99.99,,2013-04-03 00:24:00,
2013-04-02 19:33:00,45.0,17.0,-100.00,NNE,30,15.0,20.0,31,-99.99,,,-99.99,,2013-04-03 00:33:00,
2013-04-02 19:46:00,45.0,17.0,-100.00,NE,35,13.0,21.0,32,-99.99,,,-99.99,,2013-04-03 00:46:00,
2013-04-02 19:56:00,44.0,18.0,-100.00,NNE,30,14.0,21.0,35,-99.99,,,-99.99,,2013-04-03 00:56:00,
2013-04-02 20:03:00,44.0,18.0,-100.00,NNE,30,14.0,21.0,35,-99.99,,,-99.99,,2013-04-03 01:03:00,
2013-04-02 20:12:00,44.0,19.0,-100.00,NNE,30,12.0,17.0,37,-99.99,,,-99.99,,2013-04-03 01:12:00,
2013-04-02 20:22:00,43.0,19.0,-100.00,NNE,25,13.0,19.0,38,-99.99,,,-99.99,,2013-04-03 01:22:00,
2013-04-02 20:33:00,43.0,19.0,-100.00,NNE,25,13.0,19.0,38,-99.99,,,-99.99,,2013-04-03 01:33:00,
2013-04-02 20:42:00,43.0,21.0,-100.00,NE,40,11.0,17.0,41,-99.99,,,-99.99,,2013-04-03 01:42:00,
2013-04-02 20:53:00,42.0,21.0,-100.00,NE,45,11.0,17.0,43,-99.99,,,-99.99,,2013-04-03 01:53:00,
2013-04-02 21:03:00,42.0,21.0,-100.00,NE,45,11.0,17.0,43,-99.99,,,-99.99,,2013-04-03 02:03:00,
2013-04-02 21:13:00,42.0,21.0,-100.00,NNE,30,11.0,17.0,44,-99.99,,,-99.99,,2013-04-03 02:13:00,
2013-04-02 21:24:00,41.0,21.0,-100.00,NE,40,14.0,17.0,45,-99.99,,,-99.99,,2013-04-03 02:24:00,
2013-04-02 21:34:00,41.0,21.0,-100.00,NE,40,14.0,17.0,45,-99.99,,,-99.99,,2013-04-03 02:34:00,
2013-04-02 21:43:00,41.0,21.0,-100.00,NE,45,10.0,16.0,45,-99.99,,,-99.99,,2013-04-03 02:43:00,
2013-04-02 21:53:00,40.0,21.0,-100.00,NE,40,10.0,14.0,45,-99.99,,,-99.99,,2013-04-03 02:53:00,
2013-04-02 22:05:00,40.0,21.0,-100.00,NE,40,10.0,14.0,45,-99.99,,,-99.99,,2013-04-03 03:05:00,
2013-04-02 22:14:00,40.0,21.0,-100.00,NE,45,9.0,16.0,46,-99.99,,,-99.99,,2013-04-03 03:14:00,
2013-04-02 22:23:00,40.0,21.0,-100.00,NE,55,9.0,16.0,47,-99.99,,,-99.99,,2013-04-03 03:23:00,
2013-04-02 22:37:00,40.0,21.0,-100.00,NE,55,9.0,16.0,47,-99.99,,,-99.99,,2013-04-03 03:37:00,
2013-04-02 22:43:00,39.0,21.0,-100.00,NNE,30,9.0,16.0,47,-99.99,,,-99.99,,2013-04-03 03:43:00,
2013-04-02 22:54:00,39.0,21.0,-100.00,NE,40,8.0,13.0,48,-99.99,,,-99.99,,2013-04-03 03:54:00,
2013-04-02 23:03:00,39.0,21.0,-100.00,NE,40,8.0,13.0,48,-99.99,,,-99.99,,2013-04-03 04:03:00,
2013-04-02 23:12:00,38.0,21.0,-100.00,NE,45,6.0,13.0,50,-99.99,,,-99.99,,2013-04-03 04:12:00,
2013-04-02 23:23:00,38.0,22.0,-100.00,NE,45,8.0,11.0,52,-99.99,,,-99.99,,2013-04-03 04:23:00,
2013-04-02 23:33:00,38.0,22.0,-100.00,NE,45,8.0,11.0,52,-99.99,,,-99.99,,2013-04-03 04:33:00,
2013-04-02 23:43:00,36.0,21.0,-100.00,ENE,75,3.0,6.0,54,-99.99,,,-99.99,,2013-04-03 04:43:00,
2013-04-02 23:53:00,35.0,21.0,-100.00,East,80,5.0,9.0,57,-99.99,,,-99.99,,2013-04-03 04:53:00,